User: anonymous   Login
Location: Newark
(35.2672°N, 80.7344°W)
Time: 10:31:19
(UTC+00:00)
Language:

Tiros 1 - Orbit

View from above orbital plane
View from above orbital plane
View from above satellite
View from above satellite

Ground track
Ground track

The orbit data is extracted from the following two-line orbital elements,

1    29U 60002B   21017.14727933 -.00000120  00000-0  13208-4 0  9998
2    29  48.3807  20.1023 0023421  66.0876 294.2486 14.74398369250192
Epoch (UTC): 17 January 2021 03:32:04
Eccentricity: 0.0023421
inclination: 48.3807°
perigee height: 630 km
apogee height: 663 km
right ascension of ascending node: 20.1023°
argument of perigee: 66.0876°
revolutions per day: 14.74398369
mean anomaly at epoch: 294.2486°
orbit number at epoch: 25019

The dashed part of the orbit path shows where the satellite is in the earth's shadow,  

DLR